TimeEET,TemperatureF,Dew PointF,Humidity,Sea Level PressureIn,VisibilityMPH,Wind Direction,Wind SpeedMPH,Gust SpeedMPH,PrecipitationIn,Events,Conditions,WindDirDegrees,DateUTC
12:20 AM,46.4,33.8,62,30.42,6.2,NNE,6.9,-,N/A,,Partly Cloudy,20,2013-03-05 22:20:00
12:50 AM,46.4,33.8,62,30.39,6.2,NNE,11.5,-,N/A,,Partly Cloudy,30,2013-03-05 22:50:00
1:20 AM,46.4,33.8,62,30.39,6.2,NNE,12.7,-,N/A,,Partly Cloudy,30,2013-03-05 23:20:00
1:50 AM,46.4,33.8,62,30.39,6.2,NNE,11.5,-,N/A,,Partly Cloudy,30,2013-03-05 23:50:00
2:20 AM,46.4,33.8,62,30.39,6.2,NNE,8.1,-,N/A,,Partly Cloudy,20,2013-03-06 00:20:00
2:50 AM,44.6,33.8,66,30.39,6.2,NNE,10.4,-,N/A,,Partly Cloudy,20,2013-03-06 00:50:00
3:20 AM,46.4,33.8,62,30.36,6.2,NNE,9.2,-,N/A,,Partly Cloudy,20,2013-03-06 01:20:00
3:50 AM,46.4,33.8,62,30.36,6.2,NNE,12.7,-,N/A,,Partly Cloudy,20,2013-03-06 01:50:00
4:20 AM,44.6,33.8,66,30.36,6.2,NNE,9.2,-,N/A,,Partly Cloudy,20,2013-03-06 02:20:00
4:50 AM,44.6,33.8,66,30.36,6.2,NNE,12.7,-,N/A,,Partly Cloudy,30,2013-03-06 02:50:00
5:20 AM,44.6,33.8,66,30.36,6.2,NNE,12.7,-,N/A,,Partly Cloudy,20,2013-03-06 03:20:00
5:50 AM,44.6,33.8,66,30.36,6.2,NNE,6.9,-,N/A,,Partly Cloudy,30,2013-03-06 03:50:00
6:20 AM,44.6,32.0,61,30.36,6.2,NNE,6.9,-,N/A,,Partly Cloudy,20,2013-03-06 04:20:00
6:50 AM,44.6,33.8,66,30.36,-9999.0,North,9.2,-,N/A,,Clear,10,2013-03-06 04:50:00
7:20 AM,44.6,32.0,61,30.36,6.2,North,5.8,-,N/A,,Scattered Clouds,360,2013-03-06 05:20:00
7:50 AM,46.4,32.0,57,30.36,6.2,Variable,3.5,-,N/A,,Scattered Clouds,0,2013-03-06 05:50:00
8:20 AM,48.2,32.0,54,30.36,6.2,North,8.1,-,N/A,,Scattered Clouds,10,2013-03-06 06:20:00
8:50 AM,50.0,32.0,50,30.36,6.2,NNE,11.5,-,N/A,,Scattered Clouds,20,2013-03-06 06:50:00
9:20 AM,50.0,33.8,54,30.36,6.2,NNE,13.8,-,N/A,,Scattered Clouds,20,2013-03-06 07:20:00
9:50 AM,51.8,33.8,50,30.36,6.2,NNE,12.7,-,N/A,,Scattered Clouds,20,2013-03-06 07:50:00
10:20 AM,51.8,32.0,47,30.36,6.2,NNE,11.5,-,N/A,,Scattered Clouds,30,2013-03-06 08:20:00
10:50 AM,51.8,33.8,50,30.36,6.2,NNE,12.7,-,N/A,,Mostly Cloudy,20,2013-03-06 08:50:00
11:20 AM,53.6,33.8,47,30.33,6.2,NNE,12.7,-,N/A,,Mostly Cloudy,30,2013-03-06 09:20:00
11:50 AM,53.6,33.8,47,30.33,6.2,NE,12.7,-,N/A,,Mostly Cloudy,40,2013-03-06 09:50:00
12:20 PM,53.6,35.6,51,30.33,6.2,NE,13.8,-,N/A,,Mostly Cloudy,40,2013-03-06 10:20:00
12:50 PM,55.4,33.8,44,30.33,6.2,NNE,10.4,-,N/A,,Mostly Cloudy,30,2013-03-06 10:50:00
1:20 PM,53.6,33.8,47,30.30,6.2,NE,8.1,-,N/A,,Mostly Cloudy,40,2013-03-06 11:20:00
1:50 PM,53.6,33.8,47,30.30,6.2,NE,10.4,-,N/A,,Mostly Cloudy,40,2013-03-06 11:50:00
2:20 PM,55.4,37.4,51,30.30,6.2,NE,9.2,-,N/A,,Mostly Cloudy,40,2013-03-06 12:20:00
2:50 PM,53.6,35.6,51,30.27,6.2,NE,9.2,-,N/A,,Mostly Cloudy,40,2013-03-06 12:50:00
3:20 PM,53.6,39.2,58,30.27,6.2,ENE,9.2,-,N/A,,Mostly Cloudy,60,2013-03-06 13:20:00
3:50 PM,53.6,39.2,58,30.24,6.2,ENE,10.4,-,N/A,,Mostly Cloudy,60,2013-03-06 13:50:00
4:20 PM,53.6,37.4,54,30.24,6.2,NE,9.2,-,N/A,,Mostly Cloudy,50,2013-03-06 14:20:00
4:50 PM,53.6,35.6,51,30.24,6.2,NE,9.2,-,N/A,,Mostly Cloudy,40,2013-03-06 14:50:00
5:20 PM,51.8,37.4,58,30.24,6.2,NE,6.9,-,N/A,,Mostly Cloudy,50,2013-03-06 15:20:00
5:50 PM,51.8,37.4,58,30.24,6.2,NE,5.8,-,N/A,,Mostly Cloudy,40,2013-03-06 15:50:00
6:20 PM,51.8,33.8,50,30.21,6.2,NNW,2.3,-,N/A,,Mostly Cloudy,330,2013-03-06 16:20:00
6:50 PM,50.0,35.6,58,30.21,6.2,WNW,2.3,-,N/A,,Mostly Cloudy,290,2013-03-06 16:50:00
7:20 PM,48.2,35.6,62,30.21,6.2,West,1.2,-,N/A,,Mostly Cloudy,280,2013-03-06 17:20:00
7:50 PM,50.0,37.4,62,30.21,6.2,West,2.3,-,N/A,,Mostly Cloudy,260,2013-03-06 17:50:00
8:20 PM,48.2,37.4,66,30.21,6.2,WSW,2.3,-,N/A,,Mostly Cloudy,250,2013-03-06 18:20:00
8:50 PM,48.2,37.4,66,30.21,6.2,WSW,2.3,-,N/A,,Mostly Cloudy,250,2013-03-06 18:50:00
9:20 PM,48.2,37.4,66,30.21,6.2,West,2.3,-,N/A,,Mostly Cloudy,260,2013-03-06 19:20:00
9:50 PM,48.2,37.4,66,30.21,6.2,Calm,Calm,-,N/A,,Mostly Cloudy,0,2013-03-06 19:50:00
10:20 PM,48.2,37.4,66,30.18,6.2,Calm,Calm,-,N/A,,Mostly Cloudy,0,2013-03-06 20:20:00
10:50 PM,46.4,41.0,81,30.18,6.2,Variable,3.5,-,N/A,,Mostly Cloudy,0,2013-03-06 20:50:00
11:20 PM,46.4,41.0,81,30.18,6.2,WNW,2.3,-,N/A,,Mostly Cloudy,290,2013-03-06 21:20:00
11:50 PM,48.2,41.0,76,30.15,6.2,NE,3.5,-,N/A,,Mostly Cloudy,50,2013-03-06 21:50:00